Wetterdaten: aktuell Donnerstag, 24.01.2019 08:35
Datum Zeit Temp. A. Aussen2m Boden Feuchte A. Feuchte 2 Luftdruck Regen Wind Richtung Richtung Sonnenschein
24.01.2019 08:35 9,2 C 32,4 C 10,8 C 99 % 99 % 1007,8 hPa 0,0 l/m 2,4 km/h (1 Bft) NW 325 0 min
24.01.2019 08:30 9,2 C 32,4 C 10,8 C 99 % 99 % 1007,8 hPa 0,0 l/m 0,0 km/h (0 Bft) N 5 0 min
24.01.2019 08:25 9,2 C 32,4 C 10,8 C 99 % 99 % 1007,8 hPa 0,0 l/m 0,6 km/h (0 Bft) N 0 0 min
24.01.2019 08:20 9,2 C 32,4 C 10,8 C 99 % 99 % 1006,8 hPa 0,0 l/m 0,6 km/h (0 Bft) N-NO 30 0 min
24.01.2019 08:15 9,2 C 32,4 C 10,8 C 99 % 99 % 1006,8 hPa 0,0 l/m 1,2 km/h (1 Bft) N 5 0 min
24.01.2019 08:10 9,2 C 32,4 C 10,8 C 99 % 99 % 1006,8 hPa 0,0 l/m 0,0 km/h (0 Bft) W-NW 295 0 min
24.01.2019 08:05 9,2 C 32,4 C 10,8 C 99 % 99 % 1007,8 hPa 0,0 l/m 0,6 km/h (0 Bft) N 5 0 min
24.01.2019 08:00 9,2 C 32,4 C 10,8 C 99 % 99 % 1007,8 hPa 0,0 l/m 3,0 km/h (1 Bft) N-NO 15 0 min
24.01.2019 07:55 9,2 C 32,4 C 10,8 C 99 % 99 % 1007,8 hPa 0,0 l/m 1,2 km/h (1 Bft) N-NW 330 0 min
24.01.2019 07:50 9,2 C 32,4 C 10,8 C 99 % 99 % 1006,8 hPa 0,0 l/m 3,0 km/h (1 Bft) N-NO 30 0 min
24.01.2019 07:45 9,2 C 32,4 C 10,8 C 99 % 99 % 1006,8 hPa 0,0 l/m 1,2 km/h (1 Bft) N-NW 345 0 min
24.01.2019 07:40 9,2 C 32,4 C 10,8 C 99 % 99 % 1006,8 hPa 0,0 l/m 3,6 km/h (1 Bft) N-NO 20 0 min
24.01.2019 07:35 9,2 C 32,4 C 10,8 C 99 % 99 % 1006,8 hPa 0,0 l/m 4,2 km/h (1 Bft) N 0 0 min
24.01.2019 07:30 9,2 C 32,4 C 10,8 C 99 % 99 % 1006,8 hPa 0,0 l/m 2,4 km/h (1 Bft) N-NO 15 0 min
24.01.2019 07:25 9,2 C 32,4 C 10,8 C 99 % 99 % 1006,8 hPa 0,0 l/m 5,4 km/h (2 Bft) N 10 0 min
24.01.2019 07:20 9,2 C 32,4 C 10,8 C 99 % 99 % 1006,8 hPa 0,0 l/m 4,2 km/h (1 Bft) N-NO 15 0 min
24.01.2019 07:15 9,2 C 32,4 C 10,8 C 99 % 99 % 1006,8 hPa 0,0 l/m 3,6 km/h (1 Bft) N 350 0 min
24.01.2019 07:10 9,2 C 32,4 C 10,8 C 99 % 99 % 1006,8 hPa 0,0 l/m 1,8 km/h (1 Bft) NO 50 0 min
24.01.2019 07:05 9,2 C 32,4 C 10,8 C 99 % 99 % 1006,8 hPa 0,0 l/m 0,6 km/h (0 Bft) NO 35 0 min
24.01.2019 07:00 9,2 C 32,4 C 10,8 C 99 % 99 % 1006,8 hPa 0,0 l/m 2,4 km/h (1 Bft) NO 45 0 min
24.01.2019 06:55 9,2 C 32,4 C 10,8 C 99 % 99 % 1006,8 hPa 0,0 l/m 4,8 km/h (1 Bft) NO 45 0 min
24.01.2019 06:50 9,2 C 32,4 C 10,8 C 99 % 99 % 1005,8 hPa 0,0 l/m 3,6 km/h (1 Bft) N-NO 20 0 min
24.01.2019 06:45 9,2 C 32,4 C 10,8 C 99 % 99 % 1005,8 hPa 0,0 l/m 4,2 km/h (1 Bft) N-NO 25 0 min
24.01.2019 06:40 9,2 C 32,4 C 10,8 C 99 % 99 % 1005,8 hPa 0,0 l/m 1,8 km/h (1 Bft) N 10 0 min
24.01.2019 06:35 9,2 C 32,4 C 10,8 C 99 % 99 % 1005,8 hPa 0,0 l/m 1,2 km/h (1 Bft) N 10 0 min
24.01.2019 06:30 9,2 C 32,4 C 10,8 C 99 % 99 % 1005,8 hPa 0,0 l/m 4,2 km/h (1 Bft) W-NW 300 0 min
24.01.2019 06:25 9,2 C 32,4 C 10,8 C 99 % 99 % 1005,8 hPa 0,0 l/m 2,4 km/h (1 Bft) N 5 0 min
24.01.2019 06:20 9,2 C 32,4 C 10,8 C 99 % 99 % 1006,8 hPa 0,0 l/m 4,2 km/h (1 Bft) NO 40 0 min
24.01.2019 06:15 9,2 C 32,4 C 10,8 C 99 % 99 % 1006,8 hPa 0,0 l/m 4,8 km/h (1 Bft) N 10 0 min
24.01.2019 06:10 9,2 C 32,4 C 10,8 C 99 % 99 % 1006,8 hPa 0,0 l/m 8,5 km/h (2 Bft) NO 55 0 min
24.01.2019 06:05 9,2 C 32,4 C 10,8 C 99 % 99 % 1006,8 hPa 0,0 l/m 3,6 km/h (1 Bft) N 0 0 min
24.01.2019 06:00 9,2 C 32,4 C 10,8 C 99 % 99 % 1006,8 hPa 0,0 l/m 3,0 km/h (1 Bft) NO 40 0 min
24.01.2019 05:55 9,2 C 32,4 C 10,8 C 99 % 99 % 1006,8 hPa 0,0 l/m 3,6 km/h (1 Bft) NO 50 0 min
24.01.2019 05:50 9,2 C 32,4 C 10,8 C 99 % 99 % 1005,8 hPa 0,0 l/m 7,9 km/h (2 Bft) N-NO 25 0 min
24.01.2019 05:45 9,2 C 32,4 C 10,8 C 99 % 99 % 1005,8 hPa 0,0 l/m 7,9 km/h (2 Bft) N-NO 20 0 min
24.01.2019 05:40 9,2 C 32,4 C 10,8 C 99 % 99 % 1005,8 hPa 0,0 l/m 6,1 km/h (2 Bft) N 0 0 min
24.01.2019 05:35 9,2 C 32,4 C 10,8 C 99 % 99 % 1006,8 hPa 0,0 l/m 8,5 km/h (2 Bft) NO 35 0 min
24.01.2019 05:30 9,2 C 32,4 C 10,8 C 99 % 99 % 1006,8 hPa 0,0 l/m 4,8 km/h (1 Bft) N-NO 25 0 min
24.01.2019 05:25 9,2 C 32,4 C 10,8 C 99 % 99 % 1006,8 hPa 0,0 l/m 4,8 km/h (1 Bft) N-NW 330 0 min
24.01.2019 05:20 9,2 C 32,4 C 10,8 C 99 % 99 % 1005,8 hPa 0,0 l/m 3,6 km/h (1 Bft) NW 320 0 min
24.01.2019 05:15 9,2 C 32,4 C 10,8 C 99 % 99 % 1005,8 hPa 0,0 l/m 5,4 km/h (2 Bft) N-NW 330 0 min
24.01.2019 05:10 9,2 C 32,4 C 10,8 C 99 % 99 % 1005,8 hPa 0,0 l/m 6,1 km/h (2 Bft) NO 55 0 min
24.01.2019 05:05 9,2 C 32,4 C 10,8 C 99 % 99 % 1005,8 hPa 0,0 l/m 6,1 km/h (2 Bft) N-NO 25 0 min
24.01.2019 05:00 9,2 C 32,4 C 10,8 C 99 % 99 % 1005,8 hPa 0,0 l/m 1,8 km/h (1 Bft) NW 320 0 min
24.01.2019 04:55 9,2 C 32,4 C 10,8 C 99 % 99 % 1005,8 hPa 0,0 l/m 7,3 km/h (2 Bft) N-NO 30 0 min
24.01.2019 04:50 9,2 C 32,4 C 10,8 C 99 % 99 % 1005,8 hPa 0,0 l/m 2,4 km/h (1 Bft) W 275 0 min
24.01.2019 04:45 9,2 C 32,4 C 10,8 C 99 % 99 % 1005,8 hPa 0,0 l/m 1,2 km/h (1 Bft) NO 55 0 min
24.01.2019 04:40 9,2 C 32,4 C 10,8 C 99 % 99 % 1005,8 hPa 0,0 l/m 2,4 km/h (1 Bft) N 350 0 min
24.01.2019 04:35 9,2 C 32,4 C 10,8 C 99 % 99 % 1005,8 hPa 0,0 l/m 6,1 km/h (2 Bft) SO 145 0 min
24.01.2019 04:30 9,2 C 32,4 C 10,8 C 99 % 99 % 1005,8 hPa 0,0 l/m 2,4 km/h (1 Bft) N 5 0 min
24.01.2019 04:25 9,2 C 32,4 C 10,8 C 99 % 99 % 1005,8 hPa 0,0 l/m 3,6 km/h (1 Bft) N 5 0 min
24.01.2019 04:20 9,2 C 32,4 C 10,8 C 99 % 99 % 1005,8 hPa 0,0 l/m 7,3 km/h (2 Bft) N-NO 30 0 min
24.01.2019 04:15 9,2 C 32,4 C 10,8 C 99 % 99 % 1005,8 hPa 0,0 l/m 5,4 km/h (2 Bft) N 350 0 min
24.01.2019 04:10 9,2 C 32,4 C 10,8 C 99 % 99 % 1005,8 hPa 0,0 l/m 4,2 km/h (1 Bft) N-NO 25 0 min
24.01.2019 04:05 9,2 C 32,4 C 10,8 C 99 % 99 % 1005,8 hPa 0,0 l/m 5,4 km/h (2 Bft) NO 50 0 min
24.01.2019 04:00 9,2 C 32,4 C 10,8 C 99 % 99 % 1005,8 hPa 0,0 l/m 8,5 km/h (2 Bft) N 350 0 min
24.01.2019 03:55 9,2 C 32,4 C 10,8 C 99 % 99 % 1005,8 hPa 0,0 l/m 3,0 km/h (1 Bft) NW 310 0 min
24.01.2019 03:50 9,2 C 32,4 C 10,8 C 99 % 99 % 1004,8 hPa 0,0 l/m 7,3 km/h (2 Bft) N-NW 340 0 min
24.01.2019 03:45 9,2 C 32,4 C 10,8 C 99 % 99 % 1004,8 hPa 0,0 l/m 4,2 km/h (1 Bft) N 5 0 min
24.01.2019 03:40 9,2 C 32,4 C 10,8 C 99 % 99 % 1004,8 hPa 0,0 l/m 1,2 km/h (1 Bft) N-NW 335 0 min
24.01.2019 03:35 9,2 C 32,4 C 10,8 C 99 % 99 % 1005,8 hPa 0,0 l/m 4,8 km/h (1 Bft) N 5 0 min
24.01.2019 03:30 9,2 C 32,4 C 10,8 C 99 % 99 % 1005,8 hPa 0,0 l/m 3,0 km/h (1 Bft) N-NO 20 0 min
24.01.2019 03:25 9,2 C 32,4 C 10,8 C 99 % 99 % 1005,8 hPa 0,0 l/m 3,6 km/h (1 Bft) N-NW 345 0 min
24.01.2019 03:20 9,2 C 32,4 C 10,8 C 99 % 99 % 1005,8 hPa 0,0 l/m 8,5 km/h (2 Bft) NO 40 0 min
24.01.2019 03:15 9,2 C 32,4 C 10,8 C 99 % 99 % 1005,8 hPa 0,0 l/m 5,4 km/h (2 Bft) NW 320 0 min
24.01.2019 03:10 9,2 C 32,4 C 10,8 C 99 % 99 % 1005,8 hPa 0,0 l/m 1,2 km/h (1 Bft) N 350 0 min
24.01.2019 03:05 9,2 C 32,4 C 10,8 C 99 % 99 % 1005,8 hPa 0,0 l/m 5,4 km/h (2 Bft) N 10 0 min
24.01.2019 03:00 9,2 C 32,4 C 10,8 C 99 % 99 % 1005,8 hPa 0,0 l/m 3,6 km/h (1 Bft) NO 40 0 min
24.01.2019 02:55 9,2 C 32,4 C 10,8 C 99 % 99 % 1005,8 hPa 0,0 l/m 3,0 km/h (1 Bft) N 0 0 min
24.01.2019 02:50 9,2 C 32,4 C 10,8 C 99 % 99 % 1005,8 hPa 0,0 l/m 4,2 km/h (1 Bft) N 5 0 min
24.01.2019 02:45 9,2 C 32,4 C 10,8 C 99 % 99 % 1005,8 hPa 0,0 l/m 1,8 km/h (1 Bft) W-NW 290 0 min
24.01.2019 02:40 9,2 C 32,4 C 10,8 C 99 % 99 % 1005,8 hPa 0,0 l/m 5,4 km/h (2 Bft) N 0 0 min
24.01.2019 02:35 9,2 C 32,4 C 10,8 C 99 % 99 % 1005,8 hPa 0,0 l/m 3,0 km/h (1 Bft) N-NW 335 0 min
24.01.2019 02:30 9,2 C 32,4 C 10,8 C 99 % 99 % 1005,8 hPa 0,0 l/m 4,2 km/h (1 Bft) N-NO 15 0 min
24.01.2019 02:25 9,2 C 32,4 C 10,8 C 99 % 99 % 1005,8 hPa 0,0 l/m 1,8 km/h (1 Bft) W 270 0 min
24.01.2019 02:20 9,2 C 32,4 C 10,8 C 99 % 99 % 1004,8 hPa 0,0 l/m 1,2 km/h (1 Bft) N-NW 335 0 min
24.01.2019 02:15 9,2 C 32,4 C 10,8 C 99 % 99 % 1004,8 hPa 0,0 l/m 3,0 km/h (1 Bft) N-NO 15 0 min
24.01.2019 02:10 9,2 C 32,4 C 10,8 C 99 % 99 % 1004,8 hPa 0,0 l/m 1,2 km/h (1 Bft) N-NO 20 0 min
24.01.2019 02:05 9,2 C 32,4 C 10,8 C 99 % 99 % 1004,8 hPa 0,0 l/m 3,0 km/h (1 Bft) N-NO 15 0 min
24.01.2019 02:00 9,2 C 32,4 C 10,8 C 99 % 99 % 1004,8 hPa 0,0 l/m 10,9 km/h (2 Bft) NW 320 0 min
24.01.2019 01:55 9,2 C 32,4 C 10,8 C 99 % 99 % 1004,8 hPa 0,0 l/m 4,8 km/h (1 Bft) N-NO 15 0 min
24.01.2019 01:50 9,2 C 32,4 C 10,8 C 99 % 99 % 1004,8 hPa 0,0 l/m 5,4 km/h (2 Bft) N-NO 15 0 min
24.01.2019 01:45 9,2 C 32,4 C 10,8 C 99 % 99 % 1004,8 hPa 0,0 l/m 5,4 km/h (2 Bft) N-NO 15 0 min
24.01.2019 01:40 9,2 C 32,4 C 10,8 C 99 % 99 % 1004,8 hPa 0,0 l/m 3,0 km/h (1 Bft) NO 40 0 min
24.01.2019 01:35 9,2 C 32,4 C 10,8 C 99 % 99 % 1003,8 hPa 0,0 l/m 3,6 km/h (1 Bft) NO 35 0 min
24.01.2019 01:30 9,2 C 32,4 C 10,8 C 99 % 99 % 1003,8 hPa 0,0 l/m 3,6 km/h (1 Bft) O-NO 65 0 min
24.01.2019 01:25 9,2 C 32,4 C 10,8 C 99 % 99 % 1003,8 hPa 0,0 l/m 0,6 km/h (0 Bft) N 355 0 min
24.01.2019 01:20 9,2 C 32,4 C 10,8 C 99 % 99 % 1004,8 hPa 0,0 l/m 2,4 km/h (1 Bft) N-NO 15 0 min
24.01.2019 01:15 9,2 C 32,4 C 10,8 C 99 % 99 % 1004,8 hPa 0,0 l/m 5,4 km/h (2 Bft) N-NO 25 0 min
24.01.2019 01:10 9,2 C 32,4 C 10,8 C 99 % 99 % 1004,8 hPa 0,0 l/m 0,6 km/h (0 Bft) N-NO 20 0 min
24.01.2019 01:05 9,2 C 32,4 C 10,8 C 99 % 99 % 1004,8 hPa 0,0 l/m 2,4 km/h (1 Bft) N-NO 30 0 min
24.01.2019 01:00 9,2 C 32,4 C 10,8 C 99 % 99 % 1004,8 hPa 0,0 l/m 2,4 km/h (1 Bft) N-NO 25 0 min
24.01.2019 00:55 9,2 C 32,4 C 10,8 C 99 % 99 % 1004,8 hPa 0,0 l/m 4,8 km/h (1 Bft) N 5 0 min
24.01.2019 00:50 9,2 C 32,4 C 10,8 C 99 % 99 % 1004,8 hPa 0,0 l/m 6,1 km/h (2 Bft) NO 40 0 min
24.01.2019 00:45 9,2 C 32,4 C 10,8 C 99 % 99 % 1004,8 hPa 0,0 l/m 3,0 km/h (1 Bft) N 10 0 min
24.01.2019 00:40 9,2 C 32,4 C 10,8 C 99 % 99 % 1004,8 hPa 0,0 l/m 2,4 km/h (1 Bft) N-NO 30 0 min
24.01.2019 00:35 9,2 C 32,4 C 10,8 C 99 % 99 % 1003,8 hPa 0,0 l/m 3,0 km/h (1 Bft) N 350 0 min
24.01.2019 00:30 9,2 C 32,4 C 10,8 C 99 % 99 % 1003,8 hPa 0,0 l/m 5,4 km/h (2 Bft) N-NO 25 0 min
24.01.2019 00:25 9,2 C 32,4 C 10,8 C 99 % 99 % 1003,8 hPa 0,0 l/m 5,4 km/h (2 Bft) N-NO 25 0 min
24.01.2019 00:20 9,2 C 32,4 C 10,8 C 99 % 99 % 1002,8 hPa 0,0 l/m 1,2 km/h (1 Bft) O 90 0 min
24.01.2019 00:15 9,2 C 32,4 C 10,8 C 99 % 99 % 1002,8 hPa 0,0 l/m 1,2 km/h (1 Bft) NO 45 0 min
24.01.2019 00:10 9,2 C 32,4 C 10,8 C 99 % 99 % 1002,8 hPa 0,0 l/m 3,0 km/h (1 Bft) O-SO 105 0 min
24.01.2019 00:05 9,2 C 32,4 C 10,8 C 99 % 99 % 1003,8 hPa 0,0 l/m 4,2 km/h (1 Bft) N-NO 15 0 min
24.01.2019 00:00 9,2 C 32,4 C 10,8 C 99 % 99 % 1003,8 hPa 0,0 l/m 6,1 km/h (2 Bft) N 0 0 min
_ Min-Zeit 00:00 00:00 00:00 00:00 00:00 00:10 - 08:10 - - -
Minimum _ 9,2 C 32,4 C 10,8 C 99 % 99 % 1002,8 hPa - 0,0 km/h (0 Bft) - - -
_ Max-Zeit 00:00 00:00 00:00 00:00 00:00 07:55 00:00 02:00 - - 00:00
Maximum _ 9,2 C 32,4 C 10,8 C 99 % 99 % 1007,8 hPa 0,0 l/m 10,9 km/h
NW (2 Bft)
- - 0 min
Durchschnitt _ 9,2 C 32,4 C 10,8 C 99 % 99 % 1005,7 hPa #0,0 l/m 3,7 km/h (1 Bft) N-NO - #0 min.